{"data":{"norad_id":67439,"epoch":"2026-05-24T18:23:59.656416Z","epoch_age_seconds":98631,"freshness":"FRESH","line1":"1 67439U 26007E   26144.76666269 -.00000093  00000+0  66596-4 0  9997","line2":"2 67439  50.0023 169.7319 0000879 280.7083  79.3690 13.29325712 17679","mean_motion":13.29325712,"eccentricity":8.79e-5,"inclination_deg":50.0023,"raan_deg":169.7319,"arg_perigee_deg":280.7083,"mean_anomaly_deg":79.369,"bstar":6.6596e-5,"rev_number":1767,"period_min":108.32559597704,"perigee_km":1148.645996688,"apogee_km":1149.969321459,"semimajor_km":7527.4446590735,"source":"CELESTRAK","updated_at":"2026-05-25T13:38:07.005350Z"}}